Francistown, Botswana

1:43 AM CAT on January 22, 2017 (GMT +0200)
Francistown

Weather History for FBFT - March, 2014

Change the Weather History Date:

Tuesday, March 18, 2014

  Actual Average Record
Temperature  
Mean Temperature 76 °F -  
Max Temperature 88 °F 82 °F 98 °F (2013)
Min Temperature 63 °F 59 °F 60 °F (1997)
Cooling Degree Days 10    
Growing Degree Days 26 (Base 50)    
Moisture  
Dew Point 65 °F    
Average Humidity 66    
Maximum Humidity 94    
Minimum Humidity 36    
Precipitation  
Precipitation 0.00 in - - ()
Sea Level Pressure  
Sea Level Pressure 30.06 in    
Wind  
Wind Speed 5 mph ()    
Max Wind Speed 13 mph    
Max Gust Speed -    
Visibility 5.8 miles    
Events      
Averages and records for this station are not official NWS values.
T = Trace of Precipitation, MM = Missing Value Source: Averaged Metar Reports

Daily Weather History Graph

Daily Weather History Graph

Search for Another Location

Airport or City:

Trip Planner

Search our weather history database for the weather conditions in past years. The results will help you decide how hot, cold, wet, or windy it might be!

Date:

Astronomy

Mar. 18, 2014 Rise Set
Actual Time 6:13 AM CAT 6:22 PM CAT
Civil Twilight 5:50 AM CAT 6:44 PM CAT
Nautical Twilight 5:24 AM CAT 7:10 PM CAT
Astronomical Twilight 4:59 AM CAT 7:36 PM CAT
Moon 7:30 PM CAT (3/18) 7:31 AM CAT (3/18)
Length of Visible Light 12h 54m
Length of Day
12h 09m
Full, 97% of the Moon is Illuminated
Mar 18
Full
Mar 24
Last Quarter
Mar 30
New
Apr 7
First Quarter
Apr 15
Full

Hourly Weather History & Observations

Time (CAT) Temp. Heat Index Dew Point Humidity Pressure Visibility Wind Dir Wind Speed Gust Speed Precip Events Conditions
12:00 AM 71.6 °F - 64.4 °F 78% 30.06 in - Calm Calm - N/A   Clear
2:00 AM 68.0 °F - 64.4 °F 88% 30.04 in - Variable 1.2 mph - N/A   Clear
5:00 AM 64.4 °F - 62.6 °F 94% 30.06 in - Variable 1.2 mph - N/A   Clear
6:00 AM 64.4 °F - 59.0 °F 83% 30.06 in - Variable 1.2 mph - N/A   Clear
7:00 AM 64.4 °F - 62.6 °F 94% 30.09 in - Variable 1.2 mph - N/A   Clear
8:00 AM 69 °F - 66 °F 89%  in 6 mi ESE 1.2 mph - -   Partly Cloudy
8:00 AM 69.8 °F - 66.2 °F 88% 30.09 in - Variable 1.2 mph - N/A   Clear
9:00 AM 78.8 °F - 64.4 °F 61% 30.12 in - NE 5.8 mph - N/A   Clear
10:00 AM 82.4 °F 83.4 °F 62.6 °F 51% 30.12 in - East 9.2 mph - N/A   Clear
11:00 AM 85 °F - 65 °F 41%  in 6 mi East 10.4 mph - -   Partly Cloudy
11:00 AM 86.0 °F 87.3 °F 64.4 °F 48% 30.09 in - East 10.4 mph - N/A   Clear
12:00 PM 86.0 °F 88.2 °F 66.2 °F 51% 30.09 in 6.2 mi ENE 11.5 mph - N/A   Scattered Clouds
1:00 PM 86.0 °F 88.2 °F 66.2 °F 51% 30.06 in 6.2 mi ESE 12.7 mph - N/A   Partly Cloudy
2:00 PM 88 °F - 65 °F 36%  in 6 mi East 11.5 mph - -   Partly Cloudy
2:00 PM 87.8 °F 89.4 °F 64.4 °F 46% 30.04 in 6.2 mi East 11.5 mph - N/A   Partly Cloudy
3:00 PM 84.2 °F 85.6 °F 64.4 °F 51% 30.04 in 6.2 mi East 9.2 mph - N/A   Partly Cloudy
4:00 PM 86.0 °F 88.2 °F 66.2 °F 51% 30.01 in 6.2 mi East 10.4 mph - N/A   Partly Cloudy
5:00 PM 84 °F - 67 °F 47%  in 6 mi East 10.4 mph - -   Partly Cloudy
5:00 PM 84.2 °F 86.6 °F 66.2 °F 55% 29.98 in 6.2 mi East 10.4 mph - N/A   Scattered Clouds
6:00 PM 82.4 °F 84.6 °F 66.2 °F 58% 30.01 in 6.2 mi ESE 9.2 mph - N/A   Partly Cloudy
7:00 PM 78.8 °F - 66.2 °F 65% 30.01 in 6.2 mi ESE 6.9 mph - N/A   Partly Cloudy
8:00 PM 77 °F - 67 °F 64%  in 1 mi Calm Calm - -   Clear
8:00 PM 77.0 °F - 68.0 °F 74% 30.04 in - North - - N/A   Clear
9:00 PM 75.2 °F - 68.0 °F 78% 30.04 in - North - - N/A   Clear
10:00 PM 73.4 °F - 66.2 °F 78% 30.06 in - East 5.8 mph - N/A   Clear
11:00 PM 72 °F - 67 °F 79%  in 6 mi ESE 5.8 mph - -  
11:00 PM 71.6 °F - 66.2 °F 83% 30.06 in - ESE 5.8 mph - N/A   Clear